Temp
64 64 65 66 65 65 65 65 65 64 64 65 65 65 65 66 65 65 62 69 71 70 71 71 71 70 70 65 67 65 50 47 51 54 58 63 60 63 64 63 61 65 62 65 69
64 64 64 65 65 65 65 65 64 64 64 64 65 65 65 65 64 61 71 71 71 70 70 66 64 67 60 61 62 57 48 52 60 60 60 67 61 61 59 59 59 60 63 64 66
63 63 63 64 64 65 64 64 64 64 64 64 64 64 64 64 58 60 71 71 71 71 71 69 68 65 57 58 58 58 51 59 63 63 64 61 63 66 60 56 62 62 62 63 61
62 63 63 63 64 64 64 64 63 63 64 64 64 64 63 65 45 66 69 71 70 72 68 66 63 56 53 53 61 53 61 61 63 65 63 59 61 60 60 63 67 65 66 63 61
62 62 62 62 63 63 64 64 63 63 63 63 64 63 61 54 57 68 67 68 69 67 64 62 59 57 52 55 57 55 58 62 64 63 61 64 58 58 59 65 67 68 66 64 62
60 61 61 61 62 63 63 63 63 63 63 63 63 63 57 48 69 69 67 66 66 64 61 62 59 61 55 56 54 56 56 57 60 60 61 60 57 58 59 64 64 68 65 63 64
60 60 60 61 61 62 62 63 63 63 63 63 64 61 54 54 68 67 68 64 65 67 61 60 59 57 55 51 56 55 50 53 54 58 57 60 55 54 60 63 63 63 65 65 66
60 59 59 60 61 61 61 62 62 62 62 63 63 56 49 65 68 65 67 63 65 68 65 61 61 55 51 52 51 47 46 41 53 57 58 57 48 56 61 59 59 61 61 64 66
59 59 59 60 60 60 61 61 61 62 63 63 55 51 48 63 59 64 66 62 60 60 61 63 59 52 53 48 44 42 38 40 46 56 55 53 51 56 61 60 57 57 59 63 65
58 58 59 59 59 60 60 61 61 61 60 61 58 47 52 51 60 63 66 63 57 54 54 53 50 48 48 45 37 41 41 43 44 49 52 50 51 55 59 60 61 58 58 59 61
58 58 58 59 59 60 58 55 48 46 51 45 47 48 53 59 62 58 62 57 55 50 46 49 43 41 44 49 50 44 45 43 49 52 52 50 51 53 57 56 55 57 60 62 61
57 57 58 58 59 60 54 50 52 52 43 50 51 52 57 58 50 55 61 50 49 44 49 45 41 47 50 49 45 45 42 43 47 51 49 48 47 52 55 57 59 60 61 61 65
56 57 57 58 59 55 50 52 57 57 43 45 50 48 52 56 49 50 56 50 46 44 45 42 45 51 48 45 42 43 42 42 43 47 49 45 41 47 55 57 61 63 64 65 64
56 56 57 57 52 49 47 54 56 53 35 38 43 47 51 53 46 57 58 52 45 41 42 42 49 47 46 44 45 39 46 45 43 40 35 45 32 44 49 52 57 60 61 64 66
56 56 56 57 48 46 49 53 54 49 22 40 42 56 52 48 48 49 57 49 42 42 43 40 42 42 41 44 47 42 48 46 43 41 40 38 35 40 45 46 52 54 56 59 65
55 55 56 52 49 50 52 52 50 32 22 34 44 41 42 46 46 48 49 51 50 42 42 44 48 47 46 49 48 48 42 42 40 37 31 38 35 38 44 49 52 55 59 63 62
54 55 54 53 44 52 52 46 31 24 35 32 36 41 40 40 43 43 42 41 38 34 35 39 41 45 49 41 44 42 37 31 28 29 30 39 35 40 49 53 53 56 58 60 59
54 55 53 53 52 51 49 35 23 30 31 36 39 40 36 41 40 41 40 38 43 37 35 32 26 41 47 44 40 38 39 32 23 26 27 34 30 39 52 57 58 59 60 62 62
54 48 47 51 53 50 39 27 28 26 35 35 39 34 34 39 39 40 40 38 40 41 33 31 32 45 47 48 46 38 34 43 34 33 25 31 38 48 52 53 53 54 55 56 60
45 44 44 51 53 46 34 30 28 39 42 40 31 34 30 33 35 37 37 42 38 45 44 38 30 43 44 46 46 44 44 32 34 20 23 28 30 37 45 47 52 53 54 56 58
41 35 44 51 49 38 29 29 30 41 44 39 33 34 34 33 36 35 35 40 44 43 44 41 36 36 42 38 38 36 37 37 36 32 27 25 29 46 48 49 49 51 55 56 58
38 30 45 49 33 32 30 32 39 37 42 41 41 37 36 37 36 36 34 41 48 46 39 41 37 27 33 42 45 45 40 40 31 26 28 30 33 48 50 53 55 51 54 54 56
33 34 46 45 28 30 32 33 36 36 36 36 38 40 42 38 34 38 40 47 48 46 42 43 32 18 25 35 39 37 40 42 40 36 31 26 31 50 49 49 52 51 51 52 53
33 24 35 38 35 29 31 28 29 39 39 38 39 42 40 38 40 36 39 45 46 47 47 48 35 31 27 30 37 33 36 39 37 30 31 33 36 44 47 45 49 49 52 54 57
32 29 32 29 31 34 33 34 31 30 38 39 36 42 40 34 36 36 40 41 43 47 45 43 26 33 34 37 35 36 36 35 34 37 30 36 36 43 47 45 49 53 54 54 55
32 32 35 32 32 34 34 30 32 31 35 33 32 42 42 36 39 34 41 40 40 42 43 41 29 31 25 34 35 33 36 35 35 35 35 35 34 46 49 49 47 48 47 43 44
40 41 37 35 28 29 32 33 34 38 36 38 40 41 39 42 44 48 48 46 43 42 38 36 29 26 16 30 30 21 31 35 38 39 38 32 41 48 42 42 40 37 39 40 41
MSLP
1015.75 1016.07 1016.43 1016.65 1017.02 1017.38 1017.63 1017.93 1018.20 1018.41 1018.55 1018.79 1018.85 1018.87 1018.95 1018.94 1018.95 1019.12 1018.78 1018.24 1017.95 1017.84 1017.71 1017.88 1017.61 1017.41 1017.39 1017.69 1017.46 1017.63 1018.78 1018.72 1018.11 1017.34 1016.74 1016.16 1015.87 1015.73 1015.79 1016.12 1016.65 1016.99 1017.24 1017.15 1017.54
1015.15 1015.50 1015.98 1016.26 1016.58 1017.01 1017.33 1017.64 1017.98 1018.24 1018.47 1018.64 1018.73 1018.83 1018.86 1018.97 1018.94 1018.53 1018.18 1018.08 1017.98 1017.89 1017.93 1018.15 1018.11 1017.90 1017.95 1017.95 1017.84 1018.19 1018.94 1018.39 1017.59 1017.19 1017.03 1016.49 1016.20 1016.29 1016.37 1016.44 1016.83 1017.27 1017.61 1018.02 1018.08
1014.70 1014.97 1015.46 1015.84 1016.19 1016.56 1016.96 1017.34 1017.71 1018.02 1018.29 1018.50 1018.63 1018.75 1018.82 1018.97 1018.72 1017.27 1017.17 1017.72 1017.78 1017.74 1017.91 1018.10 1018.18 1018.26 1018.41 1018.30 1018.24 1018.17 1018.45 1018.14 1017.48 1017.21 1017.06 1017.09 1016.89 1016.61 1016.56 1016.83 1016.69 1017.19 1017.87 1018.45 1018.80
1014.27 1014.52 1014.90 1015.40 1015.78 1016.21 1016.59 1016.98 1017.43 1017.77 1018.15 1018.34 1018.45 1018.61 1018.69 1018.82 1018.33 1016.42 1016.34 1016.75 1017.14 1017.57 1018.03 1018.14 1018.44 1018.68 1018.74 1018.73 1018.27 1018.49 1018.16 1018.01 1017.69 1017.16 1017.26 1017.06 1017.12 1017.24 1016.96 1016.75 1016.63 1016.70 1016.80 1017.97 1018.68
1013.76 1014.14 1014.56 1014.92 1015.29 1015.81 1016.20 1016.63 1017.13 1017.57 1017.94 1018.25 1018.33 1018.46 1018.93 1018.47 1017.27 1016.70 1016.54 1017.14 1017.59 1017.91 1018.20 1018.44 1018.62 1018.80 1018.97 1018.77 1018.69 1018.47 1018.36 1018.04 1017.78 1017.42 1017.42 1017.24 1017.15 1017.22 1017.16 1016.86 1016.63 1016.53 1016.89 1017.28 1017.81
1013.39 1013.70 1014.09 1014.48 1014.82 1015.24 1015.72 1016.22 1016.73 1017.25 1017.70 1018.00 1018.20 1018.42 1018.73 1017.54 1016.79 1016.80 1017.05 1017.41 1017.84 1018.15 1018.40 1018.48 1018.46 1018.57 1018.88 1018.91 1019.16 1018.83 1018.74 1018.49 1018.10 1017.98 1017.80 1017.70 1017.35 1017.42 1017.04 1016.62 1016.71 1016.58 1016.74 1016.86 1017.02
1012.67 1013.21 1013.61 1014.00 1014.39 1014.84 1015.28 1015.90 1016.41 1016.97 1017.41 1017.69 1017.98 1018.38 1018.17 1016.76 1016.38 1016.71 1016.89 1017.53 1017.62 1017.92 1018.39 1018.75 1018.75 1018.78 1019.04 1019.31 1019.28 1019.04 1019.09 1018.79 1018.53 1018.37 1018.06 1017.85 1017.43 1017.21 1017.08 1016.93 1016.76 1016.73 1016.36 1016.40 1016.26
1011.90 1012.65 1013.15 1013.56 1014.01 1014.39 1014.90 1015.48 1016.05 1016.66 1017.24 1017.58 1017.98 1018.37 1017.43 1016.55 1016.55 1016.99 1016.94 1017.53 1017.69 1017.93 1018.43 1019.06 1018.98 1019.48 1019.70 1019.77 1019.55 1019.65 1019.74 1019.57 1018.68 1018.49 1018.22 1018.36 1016.53 1017.09 1016.92 1016.91 1016.61 1016.39 1016.21 1015.79 1015.58
1011.20 1012.02 1012.59 1013.12 1013.61 1014.08 1014.59 1015.08 1015.69 1016.39 1017.01 1017.52 1018.18 1018.41 1017.28 1016.28 1016.42 1016.68 1017.22 1017.53 1018.09 1018.64 1018.84 1019.09 1019.43 1019.83 1020.06 1020.14 1020.48 1020.43 1020.12 1019.92 1019.24 1018.78 1018.74 1018.53 1016.64 1016.75 1016.37 1016.49 1016.48 1016.16 1015.99 1015.41 1014.79
1010.59 1011.44 1012.04 1012.68 1013.22 1013.78 1014.33 1014.99 1015.69 1016.58 1017.31 1017.66 1017.91 1018.81 1017.10 1016.23 1016.09 1016.44 1016.82 1017.30 1018.33 1019.12 1019.69 1019.69 1019.90 1020.06 1019.89 1019.99 1019.66 1020.27 1020.37 1020.00 1019.22 1019.05 1018.71 1018.30 1016.88 1016.87 1016.48 1016.25 1015.92 1015.62 1015.15 1014.97 1014.32
1009.96 1010.72 1011.43 1012.11 1012.74 1013.31 1014.30 1015.33 1016.01 1016.85 1016.80 1016.46 1016.63 1016.18 1015.50 1015.69 1015.96 1016.32 1016.66 1017.50 1018.56 1019.25 1019.62 1019.82 1019.98 1019.12 1019.23 1019.72 1020.21 1020.17 1020.09 1019.73 1019.26 1019.34 1019.26 1018.63 1017.54 1016.99 1016.39 1016.05 1015.55 1015.11 1014.48 1014.12 1013.65
1009.15 1010.01 1010.79 1011.52 1012.25 1012.94 1013.78 1014.04 1013.78 1013.89 1015.94 1016.40 1016.39 1016.54 1015.81 1015.65 1016.22 1016.45 1016.72 1017.85 1018.77 1019.05 1019.36 1019.83 1019.02 1019.24 1019.45 1019.68 1020.23 1020.33 1020.25 1019.54 1019.41 1019.50 1019.63 1019.01 1017.97 1016.93 1016.44 1015.48 1014.85 1014.25 1013.60 1013.40 1012.66
1008.44 1009.35 1010.21 1011.10 1011.94 1012.88 1013.29 1013.47 1013.75 1013.66 1015.36 1015.95 1016.29 1016.25 1015.98 1016.01 1016.01 1016.15 1016.68 1017.51 1018.29 1018.83 1018.75 1019.04 1018.60 1019.26 1019.29 1019.59 1019.96 1019.95 1019.92 1019.67 1019.95 1019.88 1019.62 1019.58 1018.39 1016.67 1015.37 1014.46 1013.86 1012.95 1012.89 1012.15 1011.83
1007.84 1008.78 1009.72 1010.82 1012.36 1012.46 1012.84 1013.21 1013.78 1014.63 1015.27 1015.19 1015.60 1015.26 1015.73 1015.91 1015.96 1015.75 1016.15 1016.97 1017.94 1018.21 1019.01 1019.11 1018.40 1018.95 1019.05 1019.19 1019.54 1019.71 1019.52 1019.81 1020.00 1020.50 1019.92 1019.76 1018.09 1016.17 1015.57 1014.32 1013.23 1012.81 1012.26 1011.46 1010.96
1007.28 1008.19 1009.23 1010.24 1010.93 1011.63 1012.20 1013.06 1014.16 1015.25 1013.95 1013.98 1014.36 1014.13 1014.63 1015.39 1015.01 1015.31 1015.67 1016.87 1017.45 1017.88 1018.65 1017.67 1017.94 1018.24 1018.64 1018.15 1019.11 1019.13 1019.36 1019.70 1019.85 1019.93 1019.97 1019.55 1019.03 1015.39 1014.96 1013.76 1012.81 1012.42 1011.55 1010.55 1009.81
1006.58 1007.75 1008.76 1010.00 1010.74 1011.09 1012.02 1013.01 1014.37 1015.05 1012.00 1012.73 1012.77 1013.29 1014.45 1014.80 1014.94 1015.23 1015.87 1016.75 1017.27 1018.15 1018.20 1017.51 1017.42 1017.66 1017.51 1017.91 1018.59 1018.97 1019.27 1019.50 1019.72 1020.07 1019.34 1018.49 1018.61 1015.93 1014.69 1013.12 1012.12 1011.41 1010.58 1009.70 1009.40
1005.85 1007.13 1008.33 1009.25 1009.95 1010.69 1011.75 1013.19 1013.56 1012.08 1011.92 1012.50 1012.33 1012.53 1012.94 1014.08 1015.22 1015.23 1015.76 1016.52 1016.83 1018.00 1017.89 1017.76 1017.38 1017.02 1017.01 1017.65 1018.25 1018.92 1019.61 1019.97 1019.99 1019.90 1018.41 1017.19 1017.76 1015.43 1013.49 1011.79 1011.32 1010.28 1009.93 1009.30 1008.91
1004.77 1006.70 1007.58 1008.66 1009.76 1010.46 1011.49 1012.64 1011.29 1011.01 1011.38 1011.45 1011.68 1012.92 1012.66 1013.76 1014.97 1015.21 1015.75 1016.01 1016.33 1016.62 1017.10 1017.65 1017.30 1016.72 1016.36 1016.65 1017.24 1018.24 1018.99 1019.17 1019.17 1019.05 1018.49 1017.54 1016.43 1013.76 1012.35 1011.01 1010.51 1010.08 1009.29 1008.97 1008.56
1005.07 1006.40 1007.32 1008.16 1009.02 1010.02 1010.87 1010.51 1010.38 1010.07 1010.57 1011.40 1011.76 1012.65 1012.75 1013.35 1013.92 1014.85 1015.02 1015.17 1015.23 1015.48 1016.09 1016.60 1016.47 1015.76 1015.48 1015.97 1016.84 1017.46 1018.25 1018.23 1019.12 1018.94 1018.96 1017.22 1015.54 1013.29 1011.64 1010.67 1010.05 1009.76 1009.38 1008.92 1008.20
1005.06 1006.47 1007.01 1007.75 1008.55 1009.83 1010.26 1009.88 1010.01 1010.16 1009.87 1010.84 1010.99 1011.59 1011.58 1012.22 1013.14 1013.92 1014.75 1014.09 1014.46 1014.74 1015.03 1015.62 1015.96 1015.28 1015.16 1015.65 1015.85 1016.12 1017.09 1018.40 1019.09 1018.94 1018.15 1016.45 1014.85 1012.58 1010.85 1010.45 1010.09 1009.91 1009.90 1009.41 1008.41
1005.15 1006.54 1006.87 1007.54 1008.65 1009.36 1008.95 1009.57 1009.75 1009.83 1009.88 1010.22 1010.54 1010.94 1010.98 1010.99 1011.81 1012.82 1013.58 1013.38 1013.43 1014.10 1014.89 1015.34 1015.58 1015.55 1015.21 1015.13 1015.45 1016.53 1016.87 1017.61 1017.90 1018.32 1017.59 1015.89 1013.92 1011.23 1010.85 1010.77 1010.42 1010.43 1010.45 1009.74 1008.90
1005.28 1006.55 1006.55 1007.16 1007.87 1008.23 1008.86 1009.11 1009.12 1009.43 1010.29 1010.29 1009.50 1009.44 1009.67 1010.22 1011.39 1012.18 1012.08 1012.16 1012.27 1013.12 1014.15 1015.02 1015.60 1016.25 1015.69 1015.04 1014.99 1015.35 1015.65 1016.70 1017.60 1017.50 1017.27 1016.13 1013.52 1011.21 1010.50 1010.62 1010.60 1010.65 1010.70 1010.19 1009.96
1005.41 1006.23 1006.57 1006.75 1007.29 1007.78 1008.76 1009.29 1009.54 1009.47 1010.16 1010.23 1009.20 1008.62 1008.95 1009.87 1011.19 1011.33 1011.59 1011.81 1012.07 1012.79 1013.39 1014.25 1015.15 1016.38 1016.46 1015.92 1015.06 1015.14 1015.34 1015.77 1016.47 1016.89 1016.40 1015.97 1013.16 1010.49 1010.99 1011.14 1011.20 1011.44 1011.01 1010.52 1010.10
1005.54 1006.52 1006.33 1006.89 1007.54 1007.64 1008.22 1009.02 1009.54 1009.44 1009.31 1009.88 1008.99 1008.07 1008.51 1009.35 1009.32 1010.47 1010.82 1011.46 1011.68 1012.30 1013.08 1013.90 1014.83 1015.14 1015.24 1015.56 1014.84 1015.27 1015.24 1015.46 1016.00 1016.32 1014.71 1015.10 1012.88 1010.44 1011.61 1012.03 1011.95 1011.49 1010.78 1010.28 1009.89
1004.97 1005.51 1005.81 1006.27 1007.55 1007.62 1008.11 1008.21 1008.71 1009.11 1009.33 1009.01 1008.98 1007.28 1007.40 1008.43 1009.23 1009.54 1010.49 1011.25 1011.61 1012.07 1012.82 1013.81 1014.81 1015.70 1016.13 1015.69 1015.52 1015.35 1015.15 1015.23 1015.45 1014.83 1015.50 1013.50 1013.78 1010.70 1012.14 1012.37 1012.09 1011.98 1011.60 1011.14 1011.18
1004.23 1004.93 1004.03 1005.72 1007.05 1007.28 1007.47 1007.82 1007.90 1008.55 1008.34 1008.61 1008.46 1006.53 1006.75 1006.99 1006.76 1007.98 1009.02 1010.20 1010.97 1012.16 1012.95 1014.22 1015.44 1016.31 1016.98 1016.52 1016.09 1015.59 1014.84 1015.08 1015.06 1015.18 1015.05 1014.66 1013.57 1012.11 1012.33 1012.48 1012.63 1012.79 1013.20 1013.52 1013.22
1003.84 1004.77 1005.32 1006.13 1006.88 1007.46 1006.92 1006.99 1007.13 1007.91 1008.36 1007.34 1007.94 1007.03 1006.90 1006.34 1006.99 1007.58 1008.51 1009.96 1010.71 1011.12 1012.63 1014.19 1015.79 1017.42 1018.29 1017.50 1017.09 1016.25 1014.61 1014.43 1014.37 1014.54 1014.73 1014.91 1013.22 1012.62 1013.87 1014.16 1014.57 1014.75 1014.91 1014.84 1014.46
Wind_Speed
18 17 17 15 14 13 11 9 8 7 6 5 4 3 2 1 3 2 6 4 5 3 2 4 6 5 3 2 2 3 3 2 4 3 4 3 3 2 3 6 2 3 2 1 14
13 16 17 16 15 13 12 10 8 8 7 6 4 3 4 4 3 9 6 4 5 2 3 4 5 8 2 2 2 4 4 6 5 4 5 3 1 4 2 2 2 1 3 6 8
14 13 16 16 16 14 13 10 9 9 8 6 5 3 6 5 3 5 15 11 8 4 3 1 4 3 2 1 3 4 5 5 11 5 4 2 6 2 4 2 5 5 8 9 4
14 13 14 17 16 16 14 12 10 9 8 7 6 5 6 5 8 3 9 20 14 7 2 1 2 1 2 2 4 4 5 5 8 7 4 3 3 5 2 6 3 1 7 10 9
16 15 15 15 17 16 14 13 11 10 9 8 7 7 4 7 9 3 11 9 5 5 6 6 6 4 5 4 4 6 5 6 9 8 5 6 3 5 6 9 9 1 9 13 11
17 16 16 15 16 17 16 15 13 11 11 9 9 6 2 17 6 8 7 7 5 5 3 4 4 6 3 5 5 3 2 4 4 8 5 7 5 1 4 5 9 7 8 10 13
17 16 16 16 15 16 16 15 14 13 11 10 9 4 8 12 2 2 11 6 5 7 5 3 1 2 1 0 3 2 4 5 2 4 5 4 10 7 8 10 12 10 9 9 11
17 18 17 17 15 16 17 16 14 13 12 10 8 2 7 7 14 7 4 4 5 2 3 5 6 5 3 2 4 4 3 2 3 6 7 5 19 5 8 8 13 13 11 11 11
18 17 17 17 15 14 17 17 14 13 12 9 4 3 7 1 5 9 3 8 3 3 3 3 4 2 2 3 2 1 6 4 6 8 7 8 21 6 11 10 10 9 10 13 12
21 20 19 18 15 13 15 16 13 9 6 3 1 3 5 3 6 6 6 6 4 5 4 3 4 4 5 7 13 6 5 5 10 2 5 10 22 10 9 10 15 11 10 10 11
22 23 21 19 17 16 12 6 7 6 9 6 10 6 1 8 4 6 5 6 4 2 8 7 4 15 13 10 12 2 3 8 6 6 14 13 18 13 11 8 11 13 14 15 13
22 22 22 21 19 17 9 8 4 8 7 12 4 13 3 3 5 6 9 8 8 10 9 4 14 8 4 8 10 11 11 14 9 7 6 10 18 17 14 14 13 17 17 15 16
22 22 22 20 18 11 11 19 5 10 4 12 9 9 10 5 7 13 13 7 7 10 13 11 5 11 7 9 8 12 16 12 7 4 10 9 16 16 15 16 17 21 20 18 18
22 23 23 20 12 6 10 10 6 5 5 6 14 7 8 3 6 8 11 10 5 15 6 9 13 7 11 14 11 15 7 7 9 6 6 8 8 16 8 17 20 17 18 21 21
22 23 25 24 7 14 7 8 9 3 13 18 14 7 12 12 7 9 7 3 10 8 9 13 11 13 12 14 7 10 7 10 9 9 8 7 7 10 3 10 15 10 10 14 19
23 25 26 19 4 7 10 13 6 11 10 9 14 16 17 16 2 6 8 6 5 4 3 16 4 9 12 14 12 5 1 4 2 1 11 16 11 12 10 15 12 9 14 18 13
24 26 24 14 16 11 14 9 12 7 10 12 14 24 28 16 17 8 15 15 11 11 15 6 12 3 3 5 6 5 5 4 5 6 5 9 7 16 16 20 12 18 15 13 10
27 27 22 12 10 12 12 10 18 9 5 3 12 24 22 19 16 12 17 18 18 5 7 12 5 16 7 10 7 8 11 7 8 6 4 2 7 10 18 18 18 20 22 17 17
26 10 11 11 14 10 11 18 16 6 11 8 17 25 14 18 11 14 20 21 15 16 10 8 9 5 9 7 11 5 8 12 12 10 4 5 6 15 14 16 10 9 9 10 11
9 10 9 13 15 12 12 13 8 2 7 12 9 13 13 22 14 18 19 17 6 17 4 4 2 8 9 6 10 16 6 3 4 5 12 7 7 10 9 4 7 8 7 10 8
5 6 5 15 10 11 11 7 4 8 5 17 11 8 7 20 19 20 13 6 16 19 8 4 3 4 9 9 11 4 11 6 3 5 4 6 7 10 9 5 6 9 10 12 9
4 4 9 13 8 5 12 6 3 8 7 12 5 4 15 23 20 18 16 11 16 17 19 6 4 4 6 4 6 17 18 15 9 8 4 3 12 3 11 14 14 8 12 10 12
7 3 10 10 9 6 6 6 3 5 7 4 8 7 9 16 10 13 16 15 12 16 16 10 5 3 8 7 3 6 6 8 5 4 17 9 14 2 9 8 12 11 9 10 10
5 4 5 7 1 6 8 9 6 6 8 9 7 5 13 17 3 14 14 12 10 12 11 16 5 9 10 6 6 5 6 6 8 8 17 16 25 27 15 7 9 13 15 19 17
1 3 3 15 12 11 5 14 19 7 6 15 9 19 16 10 7 9 11 5 7 12 9 12 7 6 1 6 2 4 6 10 14 17 10 18 15 25 13 8 12 16 18 19 17
4 4 4 8 9 13 15 10 17 5 12 8 11 22 18 16 15 17 15 9 12 5 13 3 3 3 1 3 5 9 11 7 6 5 10 9 19 18 15 10 9 9 10 11 14
3 5 1 11 6 6 10 5 22 15 7 5 18 13 15 17 8 12 9 8 9 15 8 8 7 4 5 3 1 9 7 13 12 8 8 11 23 21 11 11 12 11 12 13 15
Wind_Direction
240 231 229 225 220 223 221 218 221 215 206 233 261 272 226 175 150 178 228 256 182 117 78 333 318 299 326 279 288 49 51 260 256 285 307 222 139 299 144 107 59 11 40 170 137
231 235 229 223 220 216 217 210 210 213 211 215 233 267 195 184 232 240 217 173 147 160 49 358 330 346 320 291 282 117 139 226 245 304 333 281 48 164 78 124 161 153 40 104 129
235 222 231 224 218 215 211 209 199 203 203 210 211 222 192 160 292 230 201 180 181 173 163 258 297 349 301 358 264 199 189 265 290 304 29 49 347 316 153 202 204 210 178 169 165
232 227 217 221 218 217 208 205 198 201 205 197 200 196 208 192 223 299 219 186 172 153 167 221 247 174 224 230 265 254 255 259 276 304 351 311 295 338 274 239 350 300 169 160 172
232 224 220 214 214 212 208 205 198 193 199 204 193 197 122 213 226 339 91 105 112 141 198 194 196 185 191 223 323 251 251 264 269 288 319 300 247 242 264 275 284 255 154 178 184
235 226 217 212 211 209 205 203 195 185 188 200 198 177 222 231 212 135 113 132 155 158 229 200 202 212 277 207 210 317 336 307 331 312 316 284 274 173 292 305 310 266 202 199 195
226 227 219 212 205 205 201 199 191 181 185 197 200 168 237 228 154 61 146 175 175 181 179 65 15 172 289 286 318 5 347 341 291 295 286 337 284 238 249 257 255 253 257 222 214
220 220 215 210 204 200 197 193 188 178 181 189 200 157 240 200 256 299 190 159 181 63 44 113 62 101 47 266 15 49 48 278 196 230 259 179 262 251 261 255 251 247 240 239 233
215 214 206 205 200 198 193 190 181 176 177 171 133 170 237 209 196 231 212 196 137 58 41 106 87 85 106 112 301 146 253 236 283 233 258 199 269 260 227 255 259 257 252 246 238
209 207 201 197 194 192 195 186 184 168 159 111 310 102 272 207 138 175 180 155 126 118 102 127 127 179 194 184 222 204 214 234 244 279 270 265 270 258 252 260 272 266 258 251 242
206 201 196 189 187 184 173 161 169 174 189 186 177 203 339 171 137 176 168 110 92 185 180 184 178 215 210 207 244 317 220 250 257 289 261 263 279 294 278 255 257 260 262 260 247
201 197 192 189 185 189 163 204 189 145 168 226 252 219 311 184 156 189 151 155 178 199 182 180 225 211 154 175 207 227 235 254 275 268 335 324 296 290 278 265 251 260 263 260 252
198 194 189 185 183 181 187 196 190 124 147 191 211 198 220 211 211 196 172 154 183 197 187 213 227 184 208 223 213 231 234 242 241 323 293 302 292 278 267 254 259 259 262 257 251
200 192 187 181 175 160 201 183 186 347 190 176 197 239 180 183 232 170 197 158 200 202 174 217 234 213 209 230 206 243 199 208 221 221 262 167 286 273 277 276 274 274 257 259 259
201 192 186 176 138 191 148 146 139 85 223 166 173 176 157 179 137 207 156 142 186 179 167 217 171 196 216 226 168 251 186 227 231 246 255 232 255 283 219 271 268 275 264 255 250
195 196 185 180 164 165 127 125 145 195 221 168 155 170 158 194 211 131 159 115 181 197 240 226 156 174 200 222 201 217 181 239 195 190 237 236 209 261 255 251 262 258 260 266 268
196 190 184 171 191 152 140 132 195 228 152 151 175 172 176 173 194 166 171 182 181 190 213 218 233 276 178 174 184 167 149 251 233 210 255 233 200 243 267 254 258 273 266 268 269
180 184 183 180 165 157 162 186 219 187 192 237 163 174 182 153 197 172 171 193 207 196 173 212 226 200 190 194 173 188 193 218 240 219 269 16 208 246 229 271 264 260 269 268 276
160 161 180 173 168 164 173 207 208 163 146 148 150 176 177 174 147 170 196 201 200 197 170 183 238 196 183 173 148 206 195 233 258 263 288 234 262 289 268 264 254 281 288 274 281
141 163 181 175 170 174 202 193 152 210 132 153 163 181 167 174 166 184 186 197 209 197 188 179 203 206 202 142 211 207 147 221 197 242 249 233 224 233 250 275 311 301 326 303 303
100 132 174 173 166 185 206 197 174 146 155 186 174 173 199 166 182 184 190 187 183 185 172 170 124 276 134 199 185 196 223 219 203 191 254 247 244 225 252 309 320 330 327 317 319
103 136 162 154 178 168 200 167 197 146 211 227 196 126 173 175 182 183 207 196 189 166 198 172 128 205 230 220 186 207 214 211 222 234 241 303 270 236 288 295 315 333 338 357 350
121 118 163 159 189 160 143 159 195 151 185 226 202 179 164 165 164 188 188 200 177 177 179 168 213 77 341 327 244 209 194 193 211 243 246 247 260 135 281 320 323 337 343 319 307
119 135 159 179 111 136 154 176 184 223 209 200 257 147 130 161 151 179 174 176 178 174 156 164 171 200 213 205 171 197 182 203 203 228 248 239 263 276 277 309 321 324 313 305 312
106 164 242 168 191 193 178 175 186 179 198 188 278 171 168 153 150 164 158 144 149 176 164 166 191 194 189 303 113 199 226 222 216 240 233 264 258 270 289 292 291 285 289 294 323
126 108 305 127 120 176 178 189 183 163 175 184 239 170 166 166 181 167 166 155 167 134 172 177 164 122 29 196 258 275 256 206 227 241 254 273 269 275 281 269 280 283 18 34 357
116 112 25 156 160 169 193 180 206 180 235 196 214 171 189 193 154 168 124 121 166 166 148 147 125 113 244 242 80 299 219 225 238 213 226 243 257 281 359 358 22 39 33 8 356